Location: Moena
(46.3667°N, 11.6500°E)
Time: 10:31:27
(UTC+00:00)

GP-B - Pass Details

Date: 18 June 2021
Orbit: 631 x 635 km, 89.8° (Epoch: 28 July)

Event Time Altitude Azimuth Distance (km) Brightness Sun altitude
Rises 22:35:11 0° 9° (N) 2,944 7.8 -19.6°
Reaches altitude 10° 22:37:36 10° 19° (NNE) 2,030 6.6 -19.7°
Maximum altitude 22:41:39 33° 85° (E) 1,063 4.2 -19.8°
Enters shadow 22:42:50 29° 116° (ESE) 1,173 4.2 -19.8°
